Norfolk, NE

4:37 AM CDT on August 31, 2016 (GMT -0500)
Stefan Memorial

Weather History for KOFK - March, 2012

Change the Weather History Date:

Wednesday, March 14, 2012

  Actual Average Record
Temperature  
Mean Temperature 56 °F 37 °F  
Max Temperature 72 °F 48 °F 81 °F (1935)
Min Temperature 39 °F 26 °F -2 °F (1897)
Degree Days  
Heating Degree Days 9 28  
Month to date heating degree days 283 434  
Since 1 July heating degree days 4893 5527  
Cooling Degree Days 0 0  
Month to date cooling degree days 0 0  
Year to date cooling degree days 0 0  
Growing Degree Days 7 (Base 50)    
Moisture  
Dew Point 37 °F    
Average Humidity 57    
Maximum Humidity 89    
Minimum Humidity 25    
Precipitation  
Precipitation 0.00 in 0.06 in 1.14 in (1913)
Month to date precipitation 0.16 0.63  
Year to date precipitation 2.07 1.98  
Snow  
Snow 0.00 in 0.20 in - ()
Month to date snowfall T 2.4  
Since 1 July snowfall 15.3 25.2  
Snow Depth 0.00 in    
Sea Level Pressure  
Sea Level Pressure 29.82 in    
Wind  
Wind Speed 8 mph (NW)    
Max Wind Speed 20 mph    
Max Gust Speed 24 mph    
Visibility 10 miles    
Events      
T = Trace of Precipitation, MM = Missing Value Source: NWS Daily Summary

Daily Weather History Graph

Daily Weather History Graph

Search for Another Location

Airport or City:

Trip Planner

Search our weather history database for the weather conditions in past years. The results will help you decide how hot, cold, wet, or windy it might be!

Date:

Astronomy

Mar. 14, 2012 Rise Set
Actual Time 7:42 AM CDT 7:35 PM CDT
Civil Twilight 7:14 AM CDT 8:03 PM CDT
Nautical Twilight 6:42 AM CDT 8:36 PM CDT
Astronomical Twilight 6:09 AM CDT 9:09 PM CDT
Moon 2:18 AM CDT (3/14) 11:48 AM CDT (3/14)
Length of Visible Light 12h 48m
Length of Day
11h 53m
Waning Gibbous, 54% of the Moon is Illuminated
Mar 14
Waning Gibbous
Mar 14
Last Quarter
Mar 22
New
Mar 30
First Quarter
Apr 6
Full

Hourly Weather History & Observations

Time (CDT) Temp. Windchill Dew Point Humidity Pressure Visibility Wind Dir Wind Speed Gust Speed Precip Events Conditions
12:56 AM 59.0 °F - 44.1 °F 58% 29.69 in 10.0 mi South 17.3 mph - N/A   Clear
1:56 AM 57.0 °F - 44.1 °F 62% 29.68 in 10.0 mi South 17.3 mph - N/A   Clear
2:56 AM 55.9 °F - 45.0 °F 67% 29.68 in 10.0 mi South 13.8 mph - N/A   Clear
3:56 AM 53.1 °F - 44.1 °F 71% 29.69 in 10.0 mi Calm Calm - N/A   Clear
4:56 AM 48.9 °F - 43.0 °F 80% 29.73 in 10.0 mi WNW 11.5 mph - N/A   Clear
5:56 AM 48.9 °F - 42.1 °F 77% 29.73 in 10.0 mi SSW 4.6 mph - N/A   Clear
6:56 AM 48.0 °F - 41.0 °F 77% 29.75 in 10.0 mi Variable 3.5 mph - N/A   Clear
7:56 AM 43.0 °F - 39.0 °F 86% 29.77 in 10.0 mi Calm Calm - N/A   Clear
8:56 AM 46.9 °F - 42.1 °F 83% 29.79 in 10.0 mi Calm Calm - N/A   Clear
9:56 AM 55.0 °F - 39.0 °F 55% 29.82 in 10.0 mi WNW 6.9 mph - N/A   Clear
10:56 AM 64.0 °F - 30.0 °F 28% 29.83 in 10.0 mi NNW 12.7 mph - N/A   Clear
11:56 AM 64.9 °F - 33.1 °F 31% 29.84 in 10.0 mi NNW 13.8 mph - N/A   Clear
12:56 PM 66.9 °F - 32.0 °F 27% 29.84 in 10.0 mi NNW 15.0 mph - N/A   Clear
1:56 PM 70.0 °F - 34.0 °F 27% 29.84 in 10.0 mi NNW 10.4 mph - N/A   Clear
2:56 PM 71.1 °F - 35.1 °F 27% 29.83 in 10.0 mi NW 15.0 mph - N/A   Clear
3:56 PM 71.1 °F - 34.0 °F 26% 29.85 in 10.0 mi NNW 16.1 mph - N/A   Clear
4:56 PM 70.0 °F - 34.0 °F 27% 29.86 in 10.0 mi North 12.7 mph - N/A   Clear
5:56 PM 69.1 °F - 32.0 °F 25% 29.88 in 10.0 mi North 12.7 mph - N/A   Clear
6:56 PM 64.0 °F - 33.1 °F 31% 29.90 in 10.0 mi NNW 9.2 mph - N/A   Clear
7:56 PM 59.0 °F - 33.1 °F 38% 29.92 in 10.0 mi NNW 4.6 mph - N/A   Clear
8:56 PM 54.0 °F - 33.1 °F 45% 29.94 in 10.0 mi NW 3.5 mph - N/A   Clear
9:56 PM 52.0 °F - 32.0 °F 47% 29.95 in 10.0 mi WNW 3.5 mph - N/A   Clear
10:56 PM 50.0 °F - 32.0 °F 50% 29.96 in 10.0 mi Calm Calm - N/A   Clear
11:56 PM 39.9 °F 36.7 °F 30.9 °F 70% 29.96 in 10.0 mi West 4.6 mph - N/A   Clear